Location: Les Jeannots
(43.2262°N, 5.5774°E)
Time: 18:04:23
(UTC+00:00)

Cosmos 2366 rocket - Pass Details

Date: 05 July 2020
Orbit: 954 x 998 km, 82.9° (Epoch: 12 August)

Event Time Altitude Azimuth Distance (km) Brightness Sun altitude
Exits shadow 22:56:30 44° 141° (SE) 1,353 4.3 -23.3°
Maximum altitude 22:58:12 57° 92° (E) 1,166 4.3 -23.3°
Drops below altitude 10° 23:04:24 10° 16° (NNE) 2,772 7.2 -23.5°
Sets 23:06:58 0° 12° (NNE) 3,721 8.2 -23.6°
